Regional Weather Roundup
Issued by NWS

Home | Current Version | Previous Version | Graphics & Text | Print | Product List | Glossary On
Versions: 1 2 3 4 5 6 7 8 9 10 11 12 13 14 15 16 17 18 19 20 21 22 23 24 25 26 27 28
000
ASUS45 KTFX 271110
RWRMT
MONTANA REGIONAL WEATHER ROUNDUP
NATIONAL WEATHER SERVICE GREAT FALLS MT
500 AM MDT FRI MAY 27 2016

NOTE: "FAIR" INDICATES FEW OR NO CLOUDS BELOW 12000 FEET WITH NO
SIGNIFICANT WEATHER AND/OR OBSTRUCTIONS TO VISIBILITY.

MTZ001>007-043-271200-
WEST OF THE DIVIDE

CITY           SKY/WX    TMP DP  RH WIND       PRES   REMARKS
KALISPELL      FOG       45  45 100 CALM      29.89S VSB 3/4
MISSOULA       MOCLDY    48  46  93 W3        29.93F
BUTTE          CLOUDY    43  40  89 S5        29.97F
MULLAN PASS    CLOUDY    36  32  85 NW6       29.95F WCI  31
ANACONDA         N/A     43  39  87 S6        29.95F
DEER LODGE       N/A     45  43  93 CALM      29.95F
EUREKA           N/A     52  43  71 S7        29.87S
HAMILTON         N/A     46  39  76 SE3       29.93S
LIBBY            N/A     46  43  87 CALM      29.88F
$$

MTZ008-052>055-271200-
SOUTHWEST MONTANA

CITY           SKY/WX    TMP DP  RH WIND       PRES   REMARKS
BOZEMAN        CLOUDY    43  40  89 S6        29.93S
DILLON         CLOUDY    47  41  80 CALM      29.94S
W YELLOWSTONE  CLOUDY    32  32 100 CALM      30.01S
ENNIS          CLOUDY    43  39  87 CALM      30.00S
$$

MTZ009-010-012-014-046-048-049-054-271200-
EAST SLOPES AND CENTRAL MONTANA

CITY           SKY/WX    TMP DP  RH WIND       PRES   REMARKS
CUT BANK       CLOUDY    48  43  82 VRB3      29.84F
GREAT FALLS    CLEAR     40  39  97 S3        29.87S
MALMSTROM AFB  CLEAR     41  41  99 S5        29.87F
HELENA         CLOUDY    49  44  83 SW5       29.90F
CHOTEAU          N/A     46  43  87 SW6       29.86F
$$

MTZ011-013-016-021-045-047-050-051-271200-
NORTH CENTRAL MONTANA

CITY           SKY/WX    TMP DP  RH WIND       PRES   REMARKS
HAVRE          CLEAR     46  44  93 E3        29.86S
LEWISTOWN      PTCLDY    40  37  89 SE7       29.90S
N BAR RANCH      N/A     37  36  93 W8        29.93F WCI  31
CHINOOK          N/A     46  46 100 E6        29.87S
$$

MTZ017>020-022>027-061-062-271200-
NORTHEAST MONTANA

CITY           SKY/WX    TMP DP  RH WIND       PRES   REMARKS
GLASGOW        CLOUDY    48  47  96 S3        29.89R
JORDAN           N/A     52  49  89 NE8       29.88R
SIDNEY         CLEAR     46  46 100 N6        29.87S
WOLF POINT     PTCLDY    46  43  89 CALM      29.90R
POPLAR           N/A     46  45  93 CALM      29.89R
$$

MTZ028>42-056>058-271200-
SOUTHCENTRAL AND SOUTHEAST MONTANA

CITY           SKY/WX    TMP DP  RH WIND       PRES   REMARKS
BAKER          PTCLDY    37  35  92 SE5       29.88R
BILLINGS       CLOUDY    48  44  86 SW8       29.91F
LIVINGSTON     PTCLDY    39  36  89 VRB3      29.93S
MILES CITY     CLOUDY    52  48  86 W7        29.85F
FORSYTH          N/A     50  48  93 W7        29.88R
$$

REGIONAL REPORTS...DAKOTAS

CITY           SKY/WX    TMP DP  RH WIND       PRES   REMARKS
WILLISTON      CLOUDY    49  47  93 N3        29.88R
MINOT          CLOUDY    56  53  90 W5        29.83S
DICKINSON      MOCLDY    40  38  93 CALM      29.85R
BEACH          MOCLDY    45  45 100 NE3       29.89S FOG
CROSBY         CLOUDY    50  50 100 NW3       29.89R
WATFORD CITY     N/A     41  41 100 CALM      29.87S FOG
BISMARCK       CLEAR     48  47  96 NW8       29.83S FOG
GRAND FORKS    PTCLDY    52  50  93 N5        29.78S
FARGO          CLEAR     56  52  86 E3        29.77R
BUFFALO SD       N/A     48  42  80 CALM      29.81R
RAPID CITY     CLOUDY    51  43  74 NW7       29.85F
$$

REGIONAL REPORTS...WYOMING/IDAHO/WASHINGTON

CITY           SKY/WX    TMP DP  RH WIND       PRES   REMARKS
GILLETTE       MOCLDY    42  39  89 CALM      29.90S
SHERIDAN       CLEAR     39  36  89 SW5       29.89F
BUFFALO WY     CLOUDY    46  35  65 W3        29.93S
CODY           CLEAR     41  37  87 CALM      29.93F
YELLOWSTONE LA   N/A     32  31  96 CALM      30.06R
IDAHO FALLS    PTCLDY    45  38  76 SW9       29.93S
SALMON         PTCLDY    48  37  66 CALM      29.91S
BOISE          CLEAR     51  39  63 NW13      29.94R
SPOKANE        MOCLDY    46  38  73 S16       29.93R
$$

REGIONAL REPORTS...ALBERTA

CITY           SKY/WX    TMP DP  RH WIND       PRES   REMARKS
EDMONTON       CLOUDY    50  48  93 W5        29.78S
CALGARY        CLOUDY    48  45  87 N13G20    29.78S
LETHBRIDGE     PTCLDY    48  41  76 SW15G21   29.79F
MEDICINE HAT   CLOUDY    54  48  82 N2        29.81F
WATERTON GATE    N/A     48  37  66 SW10        N/A
CARDSTON         N/A     46  37  71 SW6         N/A
MILK RIVER       N/A     43  43 100 S8          N/A
ONEFOUR          N/A     46  45  93 E7          N/A
$$

REGIONAL REPORTS...SASKATCHEWAN

CITY           SKY/WX    TMP DP  RH WIND       PRES   REMARKS
SWIFT CURRENT  CLEAR     45  43  93 SE7       29.87S
REGINA         MOCLDY    45  45 100 NW6       29.86S
SASKATOON      PTCLDY    55  52  88 CALM      29.87F
CYPRESS HILLS    N/A     43  41  93 S5          N/A
VAL MARIE        N/A     37  36  93 NE2         N/A
ROCKGLEN         N/A     46  45  93 N3          N/A
$$




USA.gov is the U.S. government's official web portal to all federal, state and local government web resources and services.